Orbital Elements at Epoch 2451582.5 (2000-Feb-08.0) TDB
Reference: JPL 15 (heliocentric ecliptic J2000)
Element | Value | Uncertainty (1-sigma) | Units |
e | .5648188567833534 | 0.00090872 | |
a | 2.334846819293791 | 0.0049624 | au |
q | 1.016081308056023 | 3.7845e-05 | au |
i | 18.21567853244692 | 0.017779 | deg |
node | 319.7322949075481 | 0.0031999 | deg |
peri | 178.8298518204849 | 0.00073476 | deg |
M | .6795338185865391 | 0.0023965 | deg |
tp | 2451580.040229484521 (2000-Feb-05.54022948) | 0.00083849 | TDB |
period | 1303.124820798994 3.57 | 4.1544 0.01137 | d yr |
n | .2762590307958915 | 0.00088073 | deg/d |
Q | 3.653612330531559 | 0.0077653 | au |
|
| | Orbit Determination Parameters
Additional Information
|